Notices

What's New in latest Release from April 7th, 2021:

- Updated Glossary, including Speed of Maximum Gust, and Total Hourly Precipitation

- Updated national and regional climate services offices contacts and prices information

- Addition of station inventory lists for 1981-2010, 1971-2000, and 1961-1990 Normals.

If you haven't already, please take our survey and provide feedback about our website: https://eccc.sondage-survey.ca/f/LanguageSelection.aspx?s=442ca660-fcf1-47c0-95a9-59707d6fd709

Hourly Data Report for July 07, 2018

OTTAWA INTL A
ONTARIO
Current Station Operator: NAVCAN

45°19'00.000" N
75°40'00.000" W
114.90 m
6106001
71628
YOW

Download Data

Hourly Data (July 2018)
Hourly Data Report for July 7, 2018
TIME
LST
Temp Definition
°C
Dew Point Definition
°C
Rel Hum Definition
%
Precip. Amount Definition
mm

Wind Dir Definition
10's deg

Wind Spd Definition
km/h
Visibility Definition
km
Stn Press Definition
kPa
Hmdx Definition


Wind Chill Definition


Weather Definition


00:00
01:00
02:00 10.5 6.7 77   25 8 24.1 101.22     LegendNANA
03:00 11.6 7.4 75   27 8 24.1 101.23     LegendNANA
04:00 11.3 7.8 79   25 4 24.1 101.22     Clear
05:00 11.7 8.1 79   23 7 24.1 101.25     LegendNANA
06:00 13.9 9.4 74   26 8 24.1 101.29     LegendNANA
07:00 18.0 8.6 54   28 17 24.1 101.31     Clear
08:00 20.1 8.7 47   29 16 24.1 101.36     LegendNANA
09:00 22.5 8.6 41   28 22 24.1 101.36     LegendNANA
10:00 24.0 9.5 39   32 19 24.1 101.35 25   Mainly Clear
11:00 25.8 9.1 34   31 20 24.1 101.32 27   LegendNANA
12:00 26.4 9.2 33   28 17 24.1 101.25 27   LegendNANA
13:00 27.6 9.3 31   29 20 24.1 101.17 29   Mainly Clear
14:00 27.7 8.5 29   27 12 24.1 101.11 28   LegendNANA
15:00 29.3 8.6 27   31 25 24.1 101.12 30   LegendNANA
16:00 28.6 8.3 27   27 8 24.1 101.06 29   Mainly Clear
17:00 28.8 8.6 28   24 13 24.1 101.03 29   LegendNANA
18:00 26.7 9.4 33   23 16 24.1 101.01 28   LegendNANA
19:00 24.8 11.6 43   20 16 24.1 101.03 27   Mainly Clear
20:00 22.4 11.7 50   19 15 24.1 101.07 25   LegendNANA
21:00 20.8 11.3 54   19 13 24.1 101.11     LegendNANA
22:00 19.8 11.1 57   21 10 24.1 101.12     Mainly Clear
23:00 18.5 10.9 61   21 8 24.1 101.13     LegendNANA

Notes on Data Quality.

Legend

  • E = Estimated
  • M = Missing
  • NA = Not Available*
  • [empty] = Indicates an unobserved value
Date modified: